Big Piney, WY

4:20 AM MST on January 24, 2017 (GMT -0700)
Big Piney-Marbleton

Weather History for KBPI - January, 2014

Change the Weather History Date:

Saturday, January 18, 2014

  Actual Average Record
Temperature  
Mean Temperature 21 °F 11 °F  
Max Temperature 34 °F 26 °F 47 °F (1985)
Min Temperature 8 °F -4 °F -47 °F (1984)
Degree Days  
Heating Degree Days 44 54  
Month to date heating degree days 846 972  
Since 1 July heating degree days 4965 5411  
Cooling Degree Days 0 0  
Month to date cooling degree days 0 0  
Year to date cooling degree days 0 0  
Moisture  
Dew Point 11 °F    
Average Humidity 66    
Maximum Humidity 84    
Minimum Humidity 47    
Precipitation  
Precipitation 0.00 in 0.01 in 0.09 in (1999)
Month to date precipitation T 0.19  
Year to date precipitation T 0.19  
Sea Level Pressure  
Sea Level Pressure 30.38 in    
Wind  
Wind Speed 6 mph (ENE)    
Max Wind Speed 20 mph    
Max Gust Speed 21 mph    
Visibility 10 miles    
Events      
T = Trace of Precipitation, MM = Missing Value Source: NWS Daily Summary

Daily Weather History Graph

Daily Weather History Graph

Search for Another Location

Airport or City:

Trip Planner

Search our weather history database for the weather conditions in past years. The results will help you decide how hot, cold, wet, or windy it might be!

Date:

Astronomy

Jan. 18, 2014 Rise Set
Actual Time 7:46 AM MST 5:16 PM MST
Civil Twilight 7:15 AM MST 5:47 PM MST
Nautical Twilight 6:40 AM MST 6:21 PM MST
Astronomical Twilight 6:06 AM MST 6:55 PM MST
Moon 8:05 PM MST (1/18) 8:43 AM MST (1/18)
Length of Visible Light 10h 32m
Length of Day
9h 30m
Waning Gibbous, 94% of the Moon is Illuminated
Jan 18
Waning Gibbous
Jan 23
Last Quarter
Jan 30
New
Feb 6
First Quarter
Feb 14
Full

Hourly Weather History & Observations

Time (MST) Temp. Windchill Dew Point Humidity Pressure Visibility Wind Dir Wind Speed Gust Speed Precip Events Conditions
12:53 AM 21.9 °F 7.8 °F 10.0 °F 60% 30.27 in 10.0 mi NNE 17.3 mph - N/A   Clear
1:53 AM 25.0 °F 12.2 °F 12.0 °F 58% 30.26 in 10.0 mi NNE 16.1 mph - N/A   Clear
2:53 AM 21.9 °F 9.2 °F 10.0 °F 60% 30.29 in 10.0 mi North 13.8 mph - N/A   Clear
3:53 AM 24.1 °F 11.5 °F 10.9 °F 57% 30.28 in 10.0 mi North 15.0 mph - N/A   Clear
4:53 AM 24.1 °F 13.7 °F 10.0 °F 55% 30.31 in 10.0 mi North 10.4 mph - N/A   Clear
5:53 AM 19.0 °F - 8.1 °F 62% 30.37 in 10.0 mi Calm Calm - N/A   Clear
6:53 AM 21.0 °F 16.2 °F 8.1 °F 57% 30.37 in 10.0 mi Variable 3.5 mph - N/A   Clear
7:53 AM 12.0 °F 2.7 °F 5.0 °F 73% 30.45 in 10.0 mi South 5.8 mph - N/A   Clear
8:53 AM 12.9 °F 5.2 °F 5.0 °F 71% 30.47 in 10.0 mi SSE 4.6 mph - N/A   Clear
9:53 AM 19.0 °F - 9.0 °F 65% 30.45 in 10.0 mi Calm Calm - N/A   Clear
10:53 AM 23.0 °F 18.4 °F 10.0 °F 58% 30.45 in 10.0 mi South 3.5 mph - N/A   Clear
11:53 AM 27.0 °F - 10.9 °F 51% 30.42 in 10.0 mi Calm Calm - N/A   Clear
12:53 PM 30.9 °F 27.5 °F 12.9 °F 47% 30.36 in 10.0 mi NNW 3.5 mph - N/A   Clear
1:53 PM 32.0 °F 28.7 °F 15.1 °F 50% 30.32 in 10.0 mi South 3.5 mph - N/A   Clear
2:53 PM 33.1 °F 26.1 °F 18.0 °F 54% 30.32 in 10.0 mi SSW 8.1 mph - N/A   Clear
3:53 PM 34.0 °F 29.8 °F 19.0 °F 54% 30.32 in 10.0 mi SSW 4.6 mph - N/A   Clear
4:53 PM 34.0 °F - 17.1 °F 50% 30.32 in 10.0 mi Calm Calm - N/A   Clear
5:53 PM 19.9 °F 14.9 °F 12.9 °F 74% 30.41 in 10.0 mi ENE 3.5 mph - N/A   Clear
6:53 PM 18.0 °F 12.7 °F 12.0 °F 78% 30.41 in 10.0 mi NNE 3.5 mph - N/A   Clear
7:53 PM 16.0 °F 10.4 °F 10.9 °F 81% 30.46 in 10.0 mi NE 3.5 mph - N/A   Clear
8:53 PM 15.1 °F 4.2 °F 10.0 °F 80% 30.47 in 10.0 mi NE 8.1 mph - N/A   Clear
9:53 PM 12.9 °F - 7.0 °F 77% 30.45 in 10.0 mi Calm Calm - N/A   Clear
10:53 PM 12.0 °F 5.9 °F 8.1 °F 84% 30.43 in 10.0 mi South 3.5 mph - N/A   Clear
11:53 PM 10.0 °F 0.4 °F 7.0 °F 87% 30.41 in 10.0 mi ENE 5.8 mph - N/A   Clear